Location: STAR School
(35.3054°N, 111.2976°W)
Time: 09:19:12
(UTC-07:00)

Vanguard 1 - Pass Details

Date: 22 October 2019
Orbit: 652 x 3831 km, 34.2° (Epoch: 21 November)

Event Time Altitude Azimuth Distance (km) Brightness Sun altitude
Exits shadow 04:02:47 12° 214° (SSW) 6,709 13.9 -32.1°
Drops below altitude 10° 04:06:42 10° 204° (SSW) 6,881 14.0 -31.3°
Sets 04:16:48 0° 182° (S) 7,574 14.5 -29.3°
